SCP
0 0 0 0 0 0 0 0 0 0 0 0 0 0 0 0 0 0 0 0 0 0 0 0 0 0 0 0 0 0 0 0 0 -0 -0 -0 -0 -0 -0 -0 -0 -0 -0
0 0 0 0 0 0 0 0 0 0 0 0 0 0 0 0 0 0 0 0 0 0 0 0 0 0 0 0 0 0 0 0 0 -0 -0 -0 -0 -0 0 0 0 -0 -0
0 0 0 0 0 0 0 0 0 0 0 0 0 0 0 0 0 0 0 0 0 0 0 0 0 0 0 0 0 0 0 0 0 0 0 0 0 -0 -0 0 -0 -0 -0
0 0 0 0 0 0 0 0 0 0 0 0 0 0 0 0 0 0 0 0 0 0 0 0 0 0 0 0 0 0 0 0 0 0 0 0 0 0 0 0 0 0 -0
0 0 0 0 0 0 0 0 0 0 0 0 0 0 0 0 0 0 0 0 0 0 0 0 0 0 0 0 0 0 0 0 0 0 0 0 0 0 0 0 0 0 0
0 0 0 0 0 0 0 0 0 0 0 0 0 0 0 0 0 0 0 0 0 0 0 0 0 0 0 0 0 0 0 0 0 0 0 0 0 0 0 0 0 0 0
0 0 0 0 0 0 0 0 0 0 0 0 0 0 0 0 0 0 0 0 0 0 0 0 0 0 0 0 0 0 0 0 0 0 0 0 0 0 0 0 0 0 0
0 0 0 0 0 0 0 0 0 0 0 0 0 0 0 0 0 0 0 0 0 0 0 0 0 0 0 0 0 0 0 0 0 0 0 0 0 0 0 0 0 0 0
0 0 0 0 0 0 0 0 0 0 0 0 0 0 0 0 0 0 0 0 0 0 0 0 0 0 0 0 0 0 0 0 0 0 0 0 0 0 0 0 0 0 0
0 0 0 0 0 0 0 0 0 0 0 0 0 0 0 0 0 0 0 0 0 0 0 0 0 0 0 0 0 0 0 0 0 0 0 0 0 0 0 1 0 0 0
0 0 0 0 0 0 0 0 0 0 0 0 0 0 0 0 0 0 0 0 0 0 0 0 0 0 0 0 0 0 0 0 0 0 0 0 0 0 1 0 0 0 0
0 0 0 0 0 0 0 0 0 0 0 0 0 0 0 0 0 0 0 0 0 0 0 0 0 0 0 0 0 0 0 0 0 0 0 0 0 0 0 0 0 0 0
0 0 0 0 0 0 0 0 0 0 0 0 0 0 0 0 0 0 0 0 0 0 0 0 0 0 0 0 0 0 0 0 0 0 0 0 0 0 0 0 0 0 0
0 0 0 0 0 0 0 0 0 0 0 0 0 0 0 0 0 0 0 0 0 0 0 0 0 0 0 0 0 0 0 0 0 0 0 0 0 0 0 0 0 0 0
0 0 0 0 0 0 0 0 0 0 0 0 0 0 0 0 0 0 0 0 0 0 0 0 0 0 0 0 0 0 0 0 0 0 0 0 0 0 0 0 0 0 0
0 0 0 0 0 0 0 0 0 0 0 0 0 0 0 0 0 0 0 0 0 0 0 0 0 0 0 0 0 0 0 0 0 0 0 0 0 0 0 0 -0 -0 -0
0 0 0 0 0 0 0 0 0 0 0 0 0 0 0 0 0 0 0 0 0 0 0 0 0 0 0 0 0 0 0 0 0 0 0 0 0 0 0 0 0 -0 -0
0 0 0 0 0 0 0 0 0 0 0 0 0 0 0 0 0 0 0 0 0 0 0 0 0 0 0 0 0 0 0 0 0 0 0 0 0 0 0 0 0 0 0
0 0 0 0 0 0 0 0 0 0 0 0 0 0 0 0 0 0 0 0 0 0 0 0 0 0 0 0 -0 0 0 0 0 0 0 0 0 0 -0 0 0 0 0
0 0 0 0 0 0 0 0 0 0 0 0 0 0 0 0 0 0 0 0 0 0 0 0 0 0 0 -0 -0 0 0 0 0 0 0 0 0 0 -0 0 0 0 0
0 0 0 0 0 0 0 0 0 0 0 0 0 0 0 0 0 0 0 0 0 0 0 0 0 0 0 0 -0 -0 0 0 0 0 0 0 0 -0 -0 -0 0 -0 0
0 0 0 0 0 0 0 0 0 0 0 0 0 0 0 0 0 0 0 0 0 0 0 0 0 0 0 0 0 -0 0 0 0 0 0 0 -0 -0 -0 0 0 0 0
0 0 0 0 0 0 0 0 0 0 0 0 0 0 0 0 0 0 0 0 0 0 0 0 0 0 0 0 -0 0 0 0 0 0 0 -0 0 0 0 0 0 0 0
0 0 0 0 0 0 0 0 0 0 0 0 0 0 0 0 0 0 0 0 0 0 0 0 0 0 0 0 0 0 0 0 0 0 0 0 0 0 0 0 0 0 0
0 0 0 0 0 0 0 0 0 0 0 0 0 0 0 0 0 0 0 0 0 0 0 0 0 0 0 0 0 0 0 0 0 0 0 0 0 0 0 0 0 -0 -0
0 0 0 0 0 0 0 0 0 0 0 0 0 0 0 0 0 0 0 0 0 0 0 0 0 0 0 0 0 0 0 -0 -0 -0 0 0 0 0 -0 -0 0 0 0
Wind_Speed_500mb
56 65 75 81 84 81 76 72 68 61 53 50 48 45 40 33 28 25 23 26 32 38 44 49 51 56 60 64 68 69 72 67 70 83 88 93 56 56 60 44 53 68 79
43 56 72 82 90 88 83 78 72 65 59 58 57 54 47 40 33 27 24 27 34 39 45 48 49 56 63 65 67 70 71 71 64 63 69 46 87 11 42 81 72 63 74
45 53 66 79 90 93 90 85 76 70 67 64 61 58 52 44 34 28 28 32 34 40 43 45 50 56 63 66 69 70 71 72 68 58 40 34 34 88 71 67 77 54 63
43 47 54 70 87 96 91 86 80 73 70 67 63 61 55 44 36 33 33 33 36 39 44 46 50 59 64 69 72 73 73 73 72 61 53 49 56 37 76 87 76 89 76
42 43 50 57 65 83 91 87 82 78 75 70 64 60 54 45 40 36 34 36 37 40 44 47 53 60 66 70 73 74 76 76 75 66 62 62 62 60 60 99 104 80 83
36 36 39 40 52 66 84 88 87 84 79 73 67 61 52 44 41 37 37 36 40 43 44 47 58 64 69 73 75 76 76 77 78 73 69 62 49 50 53 64 110 99 105
31 33 40 43 47 56 71 92 94 90 84 75 68 60 51 45 40 38 38 42 43 45 47 54 61 67 72 76 76 77 77 76 77 75 74 63 66 66 73 69 81 107 115
33 36 39 42 46 52 62 85 97 94 87 77 69 60 50 43 40 38 41 42 46 48 52 61 68 74 77 76 75 78 78 78 77 78 74 77 79 71 76 75 66 86 104
40 41 41 45 44 49 60 75 95 97 89 81 70 59 51 43 39 42 40 41 46 53 60 67 74 77 77 74 73 76 78 75 74 76 75 77 85 83 86 86 85 77 90
44 48 46 48 48 47 56 69 90 100 92 81 70 60 51 43 40 39 39 42 48 57 64 71 75 76 74 72 71 73 73 73 75 76 78 82 86 83 88 89 91 86 89
56 52 46 51 51 52 60 70 87 100 98 84 72 61 51 44 38 35 39 44 51 60 66 72 74 72 71 71 73 75 76 77 79 75 78 92 87 90 91 89 92 89 91
45 50 50 53 60 64 68 78 89 101 101 86 73 61 52 42 37 37 39 45 52 59 67 70 69 67 69 72 76 81 81 83 84 82 76 88 83 87 90 88 88 90 93
56 57 59 67 74 73 76 82 90 100 101 88 73 62 50 41 37 35 39 45 51 58 63 64 66 69 72 77 80 83 84 84 82 76 73 78 77 85 84 82 86 84 85
70 77 84 89 80 74 77 81 89 99 101 86 72 60 50 40 36 34 37 41 49 58 58 60 64 68 72 78 80 80 80 76 72 71 76 79 77 78 73 77 81 81 83
63 78 87 89 78 74 80 86 92 102 99 85 71 58 46 37 34 33 35 40 48 51 56 60 63 66 73 75 79 77 71 71 76 75 76 77 76 74 77 79 85 80 79
81 82 91 84 77 84 88 91 93 104 98 82 67 55 43 36 32 32 34 41 47 49 53 58 65 69 74 76 78 63 70 70 75 84 81 74 74 78 76 80 83 84 89
91 78 86 86 81 82 86 91 95 106 95 80 66 53 43 35 31 31 35 41 45 48 51 57 63 68 70 73 72 63 67 73 75 78 85 85 82 74 78 76 76 79 82
93 83 85 75 73 73 78 81 92 103 93 81 67 55 44 34 30 29 32 38 45 48 51 55 58 64 65 71 69 63 70 70 71 75 83 82 82 79 76 79 84 89 91
88 81 89 63 61 72 76 83 89 99 89 78 64 51 40 31 25 26 31 39 45 47 48 53 60 64 63 70 59 62 72 74 87 85 82 82 81 82 78 80 87 88 85
70 67 60 55 61 73 79 80 102 104 91 74 59 44 33 26 21 21 30 39 45 46 48 52 58 60 68 70 57 61 71 87 91 91 86 76 78 75 72 77 83 86 89
54 50 48 54 59 67 73 84 107 100 85 70 55 41 30 23 19 20 28 38 42 43 46 53 54 59 60 64 56 61 74 85 92 91 94 86 80 80 78 75 81 81 79
59 57 53 61 68 68 76 98 102 89 76 62 48 36 26 21 17 20 24 34 40 43 48 51 52 50 56 58 59 66 71 78 88 89 84 87 83 81 75 76 76 74 76
71 65 63 68 67 73 88 103 98 84 72 57 43 32 24 19 16 16 21 27 32 39 45 41 45 49 54 59 63 72 75 76 75 72 79 75 72 71 61 58 61 66 71
82 70 67 70 77 92 100 103 94 79 62 50 37 26 22 18 13 14 19 23 28 34 35 36 43 49 53 62 75 83 92 79 73 77 74 60 60 44 36 44 44 46 51
88 80 76 77 86 104 104 102 91 76 63 49 37 31 26 19 12 12 13 16 22 29 31 32 38 46 56 62 64 70 78 70 69 67 64 59 69 64 54 46 42 45 47
93 90 84 86 94 108 106 96 84 73 63 50 42 35 27 19 11 7 9 11 16 22 24 25 27 35 42 52 57 62 62 59 61 67 70 77 67 70 72 68 64 53 46
Wind_Direction_500mb
250 231 228 224 224 224 224 225 226 229 229 230 230 229 231 232 242 257 283 304 310 311 313 313 317 320 321 321 320 319 319 317 318 319 315 316 323 312 312 304 305 305 299
232 223 224 224 226 227 226 226 227 229 230 232 231 229 228 232 241 255 281 297 299 310 310 309 319 319 315 315 316 317 315 313 315 316 317 321 315 321 285 298 295 291 294
227 219 222 225 226 226 227 228 228 231 232 231 231 230 229 234 243 260 275 287 306 304 302 311 316 313 311 312 313 312 309 307 306 306 297 312 297 314 308 290 305 303 292
232 225 225 225 227 230 229 229 230 230 232 232 231 229 230 235 245 257 276 291 294 299 305 308 310 307 310 313 309 306 302 300 297 294 289 277 282 298 306 293 290 294 294
229 230 232 234 234 230 231 229 229 230 231 232 231 231 234 241 251 263 277 287 295 300 299 306 310 310 308 305 303 301 297 293 288 285 281 279 279 271 269 286 293 289 287
217 229 235 228 227 230 232 229 229 230 231 230 230 232 237 244 255 268 277 289 294 295 303 311 308 306 305 305 302 297 294 290 288 284 280 276 264 265 264 265 281 286 286
209 225 226 221 222 228 230 227 228 228 229 229 231 232 237 246 257 267 284 288 293 302 311 309 306 306 305 302 299 297 293 291 286 283 280 273 265 267 266 267 268 282 288
234 232 229 226 223 231 231 228 228 228 228 227 229 233 239 247 261 273 279 290 301 308 308 306 306 306 302 301 300 297 293 291 285 282 279 276 272 268 267 266 264 275 279
240 230 231 231 225 232 237 236 227 227 228 227 228 233 239 246 257 270 283 297 303 305 308 308 307 306 306 305 301 296 293 289 284 282 278 272 271 270 268 263 262 259 272
228 232 233 237 230 239 242 237 229 229 228 226 228 232 238 246 258 272 287 295 301 305 309 309 310 311 311 308 303 300 296 290 288 283 279 275 273 271 266 261 261 265 255
231 230 240 235 237 240 238 237 229 225 225 222 226 230 237 246 258 274 286 295 304 308 310 311 312 313 313 309 305 300 296 292 289 283 277 275 274 269 266 263 265 258 258
239 230 242 237 242 242 235 236 227 224 224 221 223 226 234 243 257 272 285 297 306 311 313 314 315 316 315 314 309 305 301 296 291 287 279 275 274 270 266 265 262 261 263
259 246 243 246 255 245 236 232 226 222 219 218 219 224 230 240 255 273 288 302 310 314 315 316 318 319 318 315 312 307 304 299 294 290 285 281 277 272 269 267 264 263 264
258 257 255 258 252 241 235 228 223 220 217 215 217 222 228 238 256 270 289 304 312 314 316 317 315 316 317 315 313 309 306 303 296 291 285 282 278 274 273 269 267 266 269
259 261 262 258 248 239 233 230 226 218 213 213 214 218 227 239 257 278 295 305 310 313 314 314 316 318 318 318 316 313 309 302 299 295 290 285 280 275 270 270 270 268 269
265 264 268 262 251 244 238 230 224 214 211 210 211 216 224 239 259 280 294 303 310 312 313 318 320 321 322 322 320 311 307 302 301 299 295 289 283 277 272 269 266 266 268
268 265 260 265 261 249 239 230 222 211 207 206 208 214 224 239 260 278 293 305 311 313 318 319 318 319 323 325 323 310 309 306 304 298 295 290 285 280 278 277 271 268 264
271 269 270 267 255 242 232 224 219 207 204 204 205 211 220 236 258 278 296 307 311 316 319 316 316 319 326 327 325 317 311 309 307 302 300 294 289 284 282 280 279 279 276
273 271 275 267 248 230 222 219 209 202 202 203 206 210 220 237 257 282 302 307 311 315 316 318 320 321 328 335 326 319 317 315 309 308 302 298 292 283 278 277 279 279 273
267 269 267 248 228 219 216 211 202 198 198 200 204 211 225 242 259 287 305 311 314 318 320 319 320 324 337 342 322 322 318 313 310 309 301 296 292 287 282 277 277 280 280
247 251 256 246 232 221 212 203 198 196 194 196 201 209 226 243 267 294 308 313 314 320 320 317 323 337 338 336 325 325 321 316 312 309 306 302 297 287 280 275 274 277 280
242 238 236 227 222 212 204 199 194 194 193 193 199 210 224 242 264 291 310 312 317 321 321 323 335 334 337 336 331 328 324 319 313 312 311 311 305 292 285 277 274 274 276
244 234 227 219 213 203 198 194 192 191 191 192 198 208 220 236 259 292 308 312 318 322 326 334 329 331 339 343 337 334 330 324 320 319 317 318 321 307 278 281 277 275 271
244 232 221 211 200 194 192 194 188 188 192 191 196 208 218 227 251 289 305 315 325 326 339 333 328 332 340 347 341 341 335 331 333 326 329 336 336 335 318 303 301 291 282
241 231 220 208 199 194 189 188 187 187 189 196 198 202 211 216 237 274 299 317 327 337 338 333 333 337 341 344 340 343 340 337 336 331 349 354 350 348 340 330 321 306 288
241 228 217 208 199 192 186 184 184 187 194 190 194 194 199 202 209 251 302 333 337 337 338 338 335 343 340 339 343 346 347 348 349 3 7 357 350 345 344 341 338 332 322
Wind_Speed_850mb
56 65 75 81 84 81 76 72 68 61 53 50 48 45 40 33 28 25 23 26 32 38 44 49 51 56 60 64 68 69 72 67 70 83 88 93 56 56 60 44 53 68 79
43 56 72 82 90 88 83 78 72 65 59 58 57 54 47 40 33 27 24 27 34 39 45 48 49 56 63 65 67 70 71 71 64 63 69 46 87 11 42 81 72 63 74
45 53 66 79 90 93 90 85 76 70 67 64 61 58 52 44 34 28 28 32 34 40 43 45 50 56 63 66 69 70 71 72 68 58 40 34 34 88 71 67 77 54 63
43 47 54 70 87 96 91 86 80 73 70 67 63 61 55 44 36 33 33 33 36 39 44 46 50 59 64 69 72 73 73 73 72 61 53 49 56 37 76 87 76 89 76
42 43 50 57 65 83 91 87 82 78 75 70 64 60 54 45 40 36 34 36 37 40 44 47 53 60 66 70 73 74 76 76 75 66 62 62 62 60 60 99 104 80 83
36 36 39 40 52 66 84 88 87 84 79 73 67 61 52 44 41 37 37 36 40 43 44 47 58 64 69 73 75 76 76 77 78 73 69 62 49 50 53 64 110 99 105
31 33 40 43 47 56 71 92 94 90 84 75 68 60 51 45 40 38 38 42 43 45 47 54 61 67 72 76 76 77 77 76 77 75 74 63 66 66 73 69 81 107 115
33 36 39 42 46 52 62 85 97 94 87 77 69 60 50 43 40 38 41 42 46 48 52 61 68 74 77 76 75 78 78 78 77 78 74 77 79 71 76 75 66 86 104
40 41 41 45 44 49 60 75 95 97 89 81 70 59 51 43 39 42 40 41 46 53 60 67 74 77 77 74 73 76 78 75 74 76 75 77 85 83 86 86 85 77 90
44 48 46 48 48 47 56 69 90 100 92 81 70 60 51 43 40 39 39 42 48 57 64 71 75 76 74 72 71 73 73 73 75 76 78 82 86 83 88 89 91 86 89
56 52 46 51 51 52 60 70 87 100 98 84 72 61 51 44 38 35 39 44 51 60 66 72 74 72 71 71 73 75 76 77 79 75 78 92 87 90 91 89 92 89 91
45 50 50 53 60 64 68 78 89 101 101 86 73 61 52 42 37 37 39 45 52 59 67 70 69 67 69 72 76 81 81 83 84 82 76 88 83 87 90 88 88 90 93
56 57 59 67 74 73 76 82 90 100 101 88 73 62 50 41 37 35 39 45 51 58 63 64 66 69 72 77 80 83 84 84 82 76 73 78 77 85 84 82 86 84 85
70 77 84 89 80 74 77 81 89 99 101 86 72 60 50 40 36 34 37 41 49 58 58 60 64 68 72 78 80 80 80 76 72 71 76 79 77 78 73 77 81 81 83
63 78 87 89 78 74 80 86 92 102 99 85 71 58 46 37 34 33 35 40 48 51 56 60 63 66 73 75 79 77 71 71 76 75 76 77 76 74 77 79 85 80 79
81 82 91 84 77 84 88 91 93 104 98 82 67 55 43 36 32 32 34 41 47 49 53 58 65 69 74 76 78 63 70 70 75 84 81 74 74 78 76 80 83 84 89
91 78 86 86 81 82 86 91 95 106 95 80 66 53 43 35 31 31 35 41 45 48 51 57 63 68 70 73 72 63 67 73 75 78 85 85 82 74 78 76 76 79 82
93 83 85 75 73 73 78 81 92 103 93 81 67 55 44 34 30 29 32 38 45 48 51 55 58 64 65 71 69 63 70 70 71 75 83 82 82 79 76 79 84 89 91
88 81 89 63 61 72 76 83 89 99 89 78 64 51 40 31 25 26 31 39 45 47 48 53 60 64 63 70 59 62 72 74 87 85 82 82 81 82 78 80 87 88 85
70 67 60 55 61 73 79 80 102 104 91 74 59 44 33 26 21 21 30 39 45 46 48 52 58 60 68 70 57 61 71 87 91 91 86 76 78 75 72 77 83 86 89
54 50 48 54 59 67 73 84 107 100 85 70 55 41 30 23 19 20 28 38 42 43 46 53 54 59 60 64 56 61 74 85 92 91 94 86 80 80 78 75 81 81 79
59 57 53 61 68 68 76 98 102 89 76 62 48 36 26 21 17 20 24 34 40 43 48 51 52 50 56 58 59 66 71 78 88 89 84 87 83 81 75 76 76 74 76
71 65 63 68 67 73 88 103 98 84 72 57 43 32 24 19 16 16 21 27 32 39 45 41 45 49 54 59 63 72 75 76 75 72 79 75 72 71 61 58 61 66 71
82 70 67 70 77 92 100 103 94 79 62 50 37 26 22 18 13 14 19 23 28 34 35 36 43 49 53 62 75 83 92 79 73 77 74 60 60 44 36 44 44 46 51
88 80 76 77 86 104 104 102 91 76 63 49 37 31 26 19 12 12 13 16 22 29 31 32 38 46 56 62 64 70 78 70 69 67 64 59 69 64 54 46 42 45 47
93 90 84 86 94 108 106 96 84 73 63 50 42 35 27 19 11 7 9 11 16 22 24 25 27 35 42 52 57 62 62 59 61 67 70 77 67 70 72 68 64 53 46
Wind_Direction_850mb
250 231 228 224 224 224 224 225 226 229 229 230 230 229 231 232 242 257 283 304 310 311 313 313 317 320 321 321 320 319 319 317 318 319 315 316 323 312 312 304 305 305 299
232 223 224 224 226 227 226 226 227 229 230 232 231 229 228 232 241 255 281 297 299 310 310 309 319 319 315 315 316 317 315 313 315 316 317 321 315 321 285 298 295 291 294
227 219 222 225 226 226 227 228 228 231 232 231 231 230 229 234 243 260 275 287 306 304 302 311 316 313 311 312 313 312 309 307 306 306 297 312 297 314 308 290 305 303 292
232 225 225 225 227 230 229 229 230 230 232 232 231 229 230 235 245 257 276 291 294 299 305 308 310 307 310 313 309 306 302 300 297 294 289 277 282 298 306 293 290 294 294
229 230 232 234 234 230 231 229 229 230 231 232 231 231 234 241 251 263 277 287 295 300 299 306 310 310 308 305 303 301 297 293 288 285 281 279 279 271 269 286 293 289 287
217 229 235 228 227 230 232 229 229 230 231 230 230 232 237 244 255 268 277 289 294 295 303 311 308 306 305 305 302 297 294 290 288 284 280 276 264 265 264 265 281 286 286
209 225 226 221 222 228 230 227 228 228 229 229 231 232 237 246 257 267 284 288 293 302 311 309 306 306 305 302 299 297 293 291 286 283 280 273 265 267 266 267 268 282 288
234 232 229 226 223 231 231 228 228 228 228 227 229 233 239 247 261 273 279 290 301 308 308 306 306 306 302 301 300 297 293 291 285 282 279 276 272 268 267 266 264 275 279
240 230 231 231 225 232 237 236 227 227 228 227 228 233 239 246 257 270 283 297 303 305 308 308 307 306 306 305 301 296 293 289 284 282 278 272 271 270 268 263 262 259 272
228 232 233 237 230 239 242 237 229 229 228 226 228 232 238 246 258 272 287 295 301 305 309 309 310 311 311 308 303 300 296 290 288 283 279 275 273 271 266 261 261 265 255
231 230 240 235 237 240 238 237 229 225 225 222 226 230 237 246 258 274 286 295 304 308 310 311 312 313 313 309 305 300 296 292 289 283 277 275 274 269 266 263 265 258 258
239 230 242 237 242 242 235 236 227 224 224 221 223 226 234 243 257 272 285 297 306 311 313 314 315 316 315 314 309 305 301 296 291 287 279 275 274 270 266 265 262 261 263
259 246 243 246 255 245 236 232 226 222 219 218 219 224 230 240 255 273 288 302 310 314 315 316 318 319 318 315 312 307 304 299 294 290 285 281 277 272 269 267 264 263 264
258 257 255 258 252 241 235 228 223 220 217 215 217 222 228 238 256 270 289 304 312 314 316 317 315 316 317 315 313 309 306 303 296 291 285 282 278 274 273 269 267 266 269
259 261 262 258 248 239 233 230 226 218 213 213 214 218 227 239 257 278 295 305 310 313 314 314 316 318 318 318 316 313 309 302 299 295 290 285 280 275 270 270 270 268 269
265 264 268 262 251 244 238 230 224 214 211 210 211 216 224 239 259 280 294 303 310 312 313 318 320 321 322 322 320 311 307 302 301 299 295 289 283 277 272 269 266 266 268
268 265 260 265 261 249 239 230 222 211 207 206 208 214 224 239 260 278 293 305 311 313 318 319 318 319 323 325 323 310 309 306 304 298 295 290 285 280 278 277 271 268 264
271 269 270 267 255 242 232 224 219 207 204 204 205 211 220 236 258 278 296 307 311 316 319 316 316 319 326 327 325 317 311 309 307 302 300 294 289 284 282 280 279 279 276
273 271 275 267 248 230 222 219 209 202 202 203 206 210 220 237 257 282 302 307 311 315 316 318 320 321 328 335 326 319 317 315 309 308 302 298 292 283 278 277 279 279 273
267 269 267 248 228 219 216 211 202 198 198 200 204 211 225 242 259 287 305 311 314 318 320 319 320 324 337 342 322 322 318 313 310 309 301 296 292 287 282 277 277 280 280
247 251 256 246 232 221 212 203 198 196 194 196 201 209 226 243 267 294 308 313 314 320 320 317 323 337 338 336 325 325 321 316 312 309 306 302 297 287 280 275 274 277 280
242 238 236 227 222 212 204 199 194 194 193 193 199 210 224 242 264 291 310 312 317 321 321 323 335 334 337 336 331 328 324 319 313 312 311 311 305 292 285 277 274 274 276
244 234 227 219 213 203 198 194 192 191 191 192 198 208 220 236 259 292 308 312 318 322 326 334 329 331 339 343 337 334 330 324 320 319 317 318 321 307 278 281 277 275 271
244 232 221 211 200 194 192 194 188 188 192 191 196 208 218 227 251 289 305 315 325 326 339 333 328 332 340 347 341 341 335 331 333 326 329 336 336 335 318 303 301 291 282
241 231 220 208 199 194 189 188 187 187 189 196 198 202 211 216 237 274 299 317 327 337 338 333 333 337 341 344 340 343 340 337 336 331 349 354 350 348 340 330 321 306 288
241 228 217 208 199 192 186 184 184 187 194 190 194 194 199 202 209 251 302 333 337 337 338 338 335 343 340 339 343 346 347 348 349 3 7 357 350 345 344 341 338 332 322